EDT,Max TemperatureF,Mean TemperatureF,Min TemperatureF,Max Dew PointF,MeanDew PointF,Min DewpointF,Max Humidity, Mean Humidity, Min Humidity, Max Sea Level PressureIn, Mean Sea Level PressureIn, Min Sea Level PressureIn, Max VisibilityMiles, Mean VisibilityMiles, Min VisibilityMiles, Max Wind SpeedMPH, Mean Wind SpeedMPH, Max Gust SpeedMPH,PrecipitationIn, CloudCover, Events, WindDirDegrees
2013-5-1,77,72,68,70,69,66,100,88,69,30.05,30.01,29.97,10,9,1,17,6,22,0.64,5,Rain,68
2013-5-2,73,70,66,72,68,64,100,94,81,29.99,29.91,29.84,10,6,0,17,6,22,3.04,8,Fog-Rain-Thunderstorm,98
2013-5-3,80,74,68,68,67,65,100,86,65,29.86,29.77,29.70,10,10,5,22,7,30,0.01,6,Rain,42
2013-5-4,82,75,68,70,67,64,100,85,56,29.81,29.72,29.69,10,8,2,13,6,,0.03,6,Rain,309
2013-5-5,78,70,62,66,54,41,94,65,29,29.96,29.86,29.77,10,10,6,21,12,25,0.01,3,Rain,284
2013-5-6,77,69,62,60,53,48,84,61,40,30.03,29.97,29.92,10,10,10,15,9,23,0.00,1,,265
2013-5-7,79,68,57,59,54,51,87,63,43,30.08,30.03,29.99,10,10,10,15,8,24,0.00,2,,254
2013-5-8,82,70,61,61,57,54,93,65,43,30.16,30.10,30.05,10,10,10,10,6,21,0.00,2,,268
2013-5-9,84,73,62,64,60,53,93,66,34,30.18,30.14,30.10,10,10,10,12,3,,0.00,0,,306
2013-5-10,89,77,66,70,66,63,93,72,45,30.16,30.09,30.01,10,10,10,16,5,22,0.00,2,,124
2013-5-11,89,79,69,70,67,63,96,73,48,30.08,30.04,29.99,10,10,9,15,7,24,0.00,1,,226
2013-5-12,90,78,69,72,66,62,97,72,43,30.06,30.01,29.96,10,10,9,18,6,24,0.00,2,,251
2013-5-13,82,74,66,66,58,49,84,61,33,30.16,30.09,30.02,10,10,10,10,8,18,0.00,1,,339
2013-5-14,84,72,61,56,52,43,78,53,24,30.24,30.19,30.15,10,10,10,16,5,,0.00,0,,29
2013-5-15,84,72,62,62,57,51,86,61,36,30.25,30.18,30.13,10,10,10,15,4,18,0.00,0,,115
2013-5-16,86,75,64,63,60,57,90,66,37,30.17,30.10,30.05,10,10,10,16,5,,0.00,0,,140
2013-5-17,87,76,66,68,63,60,90,68,41,30.14,30.10,30.06,10,10,10,17,4,,0.00,1,,114
2013-5-18,91,79,69,72,67,59,93,74,36,30.15,30.10,30.04,10,10,10,18,5,,0.00,1,,120
2013-5-19,88,76,69,72,70,68,94,82,57,30.12,30.07,30.02,10,9,0,24,7,32,0.71,4,Fog-Rain-Thunderstorm,138
2013-5-20,88,80,71,72,70,65,94,83,46,30.11,30.06,30.01,10,9,1,20,5,24,0.52,3,Rain-Thunderstorm,102
2013-5-21,80,74,69,71,69,67,100,88,70,30.07,30.03,29.98,10,10,4,8,5,16,0.08,3,Rain-Thunderstorm,97
2013-5-22,86,76,69,73,70,66,100,84,55,30.01,29.97,29.94,10,9,1,20,4,16,0.48,3,Rain-Thunderstorm,121
2013-5-23,90,80,71,72,69,65,97,77,45,30.03,29.99,29.94,10,10,10,13,4,,0.00,2,,302
2013-5-24,93,81,71,72,66,57,97,66,32,30.12,30.04,29.99,10,10,8,13,6,20,0.00,1,,299
2013-5-25,84,77,69,68,62,57,90,63,42,30.23,30.17,30.10,10,10,10,17,8,22,0.00,1,,53
2013-5-26,84,74,63,61,58,54,84,61,37,30.25,30.21,30.17,10,10,10,13,5,17,0.00,0,,69
2013-5-27,84,75,66,65,62,59,87,64,43,30.22,30.18,30.14,10,10,10,14,7,21,0.00,0,,85
2013-5-28,86,77,68,70,67,64,90,72,55,30.18,30.14,30.10,10,10,10,20,9,25,0.00,3,,89
2013-5-29,84,76,71,72,71,68,94,84,60,30.17,30.12,30.09,10,10,9,17,9,25,0.05,3,Rain,100
2013-5-30,86,78,73,72,70,66,96,79,55,30.15,30.12,30.08,10,10,8,28,12,34,0.04,4,Rain,97
2013-5-31,86,78,72,72,70,67,93,76,56,30.14,30.11,30.06,10,10,4,21,11,30,0.04,3,Rain,97